sat.trackr.live / text

‹ back to catalog

STARLINK-33936

NORAD 64005 · 2025-101M

PAYLOAD ACTIVE UNKNOWN

§ Identity

Operator
Country
US
Launch date
2025-05-14
Launch site
AFETR
Launch vehicle
Mass (kg)
RCS (m²)

Purposes: comms

External: N2YO · Heavens-Above · Gunter

§ Orbital elements

Epoch: 2026-05-25T02:33:49.761216Z

Period
94.27 min
Inclination
43.0003°
Eccentricity
0.0001670
Mean motion
15.27585465 rev/d
Perigee alt
481.9 km
Apogee alt
484.2 km
Semi-major
6,861.2 km
B*
5.0979e-4
RAAN
286.2808°
Arg perigee
275.8336°
Mean anomaly
84.2325°
Rev number
5,874

§ Raw data

STARLINK-339361 64005U 25101M   26145.10682594  .00013795  00000+0  50979-3 0  99942 64005  43.0003 286.2808 0001670 275.8336  84.2325 15.27585465 58745

JSON: /api/v1/satellites/64005 · /tle

For live sub-satellite position, see the globe view (requires WebGL).

§ Visibility from observer

Set your observer location to see the next 7 days of passes ≥ 10°. The values pass through the URL so the page stays shareable.

No JS? Fill the form by hand. The geolocation button needs JavaScript.